Shelbyville, IN

1:09 AM EDT on May 01, 2017 (GMT -0400)
Shelbyville Municipal

Weather History for KGEZ - September, 2013

Change the Weather History Date:

Monday, September 23, 2013

  Actual Average Record
Temperature  
Mean Temperature 60 °F 63 °F  
Max Temperature 74 °F 75 °F 95 °F (2010)
Min Temperature 46 °F 50 °F 36 °F (2012)
Degree Days  
Heating Degree Days 5 4  
Month to date heating degree days 29 40  
Since 1 July heating degree days 37 46  
Cooling Degree Days 0 2  
Month to date cooling degree days 150 83  
Year to date cooling degree days 1135 889  
Growing Degree Days 10 (Base 50)    
Moisture  
Dew Point 45 °F    
Average Humidity 61    
Maximum Humidity 86    
Minimum Humidity 35    
Precipitation  
Precipitation 0.00 in 0.10 in 0.81 in (2001)
Month to date precipitation 2.03 2.43  
Year to date precipitation 23.44 32.71  
Sea Level Pressure  
Sea Level Pressure 30.06 in    
Wind  
Wind Speed 6 mph (East)    
Max Wind Speed 13 mph    
Max Gust Speed 17 mph    
Visibility 10 miles    
Events      
T = Trace of Precipitation, MM = Missing Value Source: NWS Daily Summary

Daily Weather History Graph

Daily Weather History Graph

Search for Another Location

Airport or City:

Trip Planner

Search our weather history database for the weather conditions in past years. The results will help you decide how hot, cold, wet, or windy it might be!

Date:

Astronomy

Sep. 23, 2013 Rise Set
Actual Time 7:32 AM EDT 7:38 PM EDT
Civil Twilight 7:05 AM EDT 8:05 PM EDT
Nautical Twilight 6:33 AM EDT 8:36 PM EDT
Astronomical Twilight 6:01 AM EDT 9:08 PM EDT
Moon 10:11 PM EDT (9/23) 11:49 AM EDT (9/23)
Length of Visible Light 12h 59m
Length of Day
12h 06m
Waning Gibbous, 81% of the Moon is Illuminated
Sep 23
Waning Gibbous
Sep 26
Last Quarter
Oct 4
New
Oct 11
First Quarter
Oct 18
Full

Hourly Weather History & Observations

Time (EDT) Temp. Dew Point Humidity Pressure Visibility Wind Dir Wind Speed Gust Speed Precip Events Conditions
12:53 AM 48.9 °F 45.0 °F 86% 30.03 in 10.0 mi Calm Calm - N/A   Unknown
1:53 AM 48.9 °F 44.1 °F 83% 30.03 in 10.0 mi ENE 4.6 mph - N/A   Unknown
2:53 AM 48.0 °F 43.0 °F 83% 30.03 in 10.0 mi NE 5.8 mph - N/A   Clear
3:53 AM 48.9 °F 44.1 °F 83% 30.03 in 10.0 mi ENE 6.9 mph - N/A   Clear
4:53 AM 46.9 °F 43.0 °F 86% 30.04 in 10.0 mi East 5.8 mph - N/A   Clear
5:53 AM 46.9 °F 43.0 °F 86% 30.05 in 10.0 mi East 4.6 mph - N/A   Clear
6:53 AM 46.9 °F 43.0 °F 86% 30.06 in 10.0 mi East 5.8 mph - 0.01 in   Clear
7:53 AM 48.0 °F 44.1 °F 86% 30.09 in 10.0 mi East 3.5 mph - N/A   Clear
8:53 AM 52.0 °F 46.0 °F 80% 30.11 in 10.0 mi ESE 3.5 mph - N/A   Clear
9:53 AM 57.9 °F 48.0 °F 70% 30.11 in 10.0 mi ESE 6.9 mph - N/A   Clear
10:53 AM 63.0 °F 46.0 °F 54% 30.11 in 10.0 mi SE 9.2 mph - N/A   Clear
11:53 AM 66.0 °F 45.0 °F 47% 30.11 in 10.0 mi ESE 6.9 mph - N/A   Clear
12:53 PM 68.0 °F 45.0 °F 43% 30.10 in 10.0 mi East 8.1 mph 17.3 mph N/A   Clear
1:53 PM 69.1 °F 44.1 °F 40% 30.09 in 10.0 mi Variable 5.8 mph - N/A   Clear
2:53 PM 71.1 °F 45.0 °F 39% 30.07 in 10.0 mi ENE 9.2 mph - N/A   Clear
3:53 PM 73.0 °F 44.1 °F 35% 30.04 in 10.0 mi Variable 6.9 mph - N/A   Clear
4:53 PM 72.0 °F 45.0 °F 38% 30.04 in 10.0 mi ENE 9.2 mph - N/A   Clear
5:53 PM 72.0 °F 45.0 °F 38% 30.04 in 10.0 mi Variable 6.9 mph - N/A   Clear
6:53 PM 70.0 °F 46.0 °F 42% 30.03 in 10.0 mi East 9.2 mph - N/A   Clear
7:53 PM 61.0 °F 48.0 °F 62% 30.04 in 10.0 mi East 5.8 mph - N/A   Clear
8:53 PM 55.9 °F 48.0 °F 75% 30.06 in 10.0 mi East 3.5 mph - N/A   Clear
9:53 PM 53.1 °F 46.9 °F 80% 30.06 in 10.0 mi East 5.8 mph - N/A   Clear
10:53 PM 53.1 °F 46.9 °F 80% 30.06 in 10.0 mi East 5.8 mph - N/A   Clear
11:53 PM 54.0 °F 46.9 °F 77% 30.05 in 10.0 mi East 6.9 mph - N/A   Unknown